W4MLN-1 Weather Reports


Display with metric or nautical units.
time (UTC)temp
F
wind
direction
speed
MPH
gust
MPH
rain 1hr
in
rain 24hr
in
rain mn
in
humidity
%
barometer
mb
20260508135126 52 87 1.0 4.0 0.00 0.00 0.00 56 1017.3
20260508134627 52 265 1.0 4.0 0.00 0.00 0.00 56 1017.3
20260508134127 51 156 2.0 5.0 0.00 0.00 0.00 61 1017.2
20260508133623 51 145 2.0 5.0 0.00 0.00 0.00 58 1017.1
20260508133124 50 222 2.0 5.0 0.00 0.00 0.00 60 1017.0
20260508132624 49 137 2.0 5.0 0.00 0.00 0.00 62 1017.0
20260508132124 49 151 2.0 4.0 0.00 0.00 0.00 66 1017.0
20260508131624 48 141 2.0 4.0 0.00 0.00 0.00 67 1016.9
20260508131123 47 219 2.0 3.0 0.00 0.00 0.00 72 1016.9
20260508130624 46 190 1.0 4.0 0.00 0.00 0.00 78 1016.7
20260508130125 45 124 2.0 4.0 0.00 0.00 0.00 80 1016.9
20260508125609 44 215 2.0 5.0 0.00 0.00 0.00 79 1016.7
20260508125110 43 266 1.0 5.0 0.00 0.00 0.00 88 1016.7
20260508124610 42 193 1.0 2.0 0.00 0.00 0.00 97 1016.9
20260508124109 41 83 1.0 2.0 0.00 0.00 0.00 100 1016.7
20260508123610 40 78 1.0 3.0 0.00 0.00 0.00 100 1016.7
20260508123109 40 52 1.0 3.0 0.00 0.00 0.00 99 1016.7
20260508122610 39 27 1.0 3.0 0.00 0.00 0.00 99 1016.7
20260508122110 38 0 1.0 2.0 0.00 0.00 0.00 99 1016.7
20260508121609 38 0 1.0 2.0 0.00 0.00 0.00 99 1016.6
20260508121110 37 43 1.0 2.0 0.00 0.00 0.00 99 1016.6
20260508120556 37 45 1.0 2.0 0.00 0.00 0.00 99 1016.5
20260508120055 36 0 0.0 2.0 0.00 0.00 0.00 99 1016.4
20260508115555 36 0 1.0 2.0 0.00 0.00 0.00 99 1016.4
20260508115041 36 35 1.0 2.0 0.00 0.00 0.00 99 1016.3
20260508114540 35 322 1.0 3.0 0.00 0.00 0.00 99 1016.2
20260508114041 35 339 2.0 3.0 0.00 0.00 0.00 99 1016.2
20260508113540 34 359 2.0 2.0 0.00 0.00 0.00 99 1016.1
20260508113041 34 15 1.0 2.0 0.00 0.00 0.00 99 1016.1
20260508112541 34 358 1.0 3.0 0.00 0.00 0.00 99 1016.0
20260508112042 34 317 1.0 3.0 0.00 0.00 0.00 99 1016.0
20260508111541 34 306 1.0 2.0 0.00 0.00 0.00 99 1016.0
20260508111041 34 348 1.0 2.0 0.00 0.00 0.00 99 1016.0
20260508110539 34 9 1.0 2.0 0.00 0.00 0.00 99 1016.0
20260508110026 34 286 1.0 2.0 0.00 0.00 0.00 99 1015.9
20260508105527 34 313 1.0 2.0 0.00 0.00 0.00 99 1015.9
20260508105012 34 293 0.0 2.0 0.00 0.00 0.00 99 1015.8
20260508104511 33 0 0.0 1.0 0.00 0.00 0.00 99 1015.7
20260508104012 34 0 0.0 1.0 0.00 0.00 0.00 99 1015.7
20260508103457 34 0 0.0 1.0 0.00 0.00 0.00 99 1015.6
20260508102956 34 0 0.0 1.0 0.00 0.00 0.00 99 1015.6
20260508102457 34 0 0.0 1.0 0.00 0.00 0.00 99 1015.4
20260508101957 34 0 0.0 2.0 0.00 0.00 0.00 99 1015.3
20260508101457 34 0 0.0 2.0 0.00 0.00 0.00 99 1015.2
20260508100957 34 0 1.0 3.0 0.00 0.00 0.00 99 1015.1
20260508100457 35 258 1.0 3.0 0.00 0.00 0.00 99 1015.1
20260508095943 35 317 1.0 3.0 0.00 0.00 0.00 99 1015.1
20260508095442 35 314 1.0 2.0 0.00 0.00 0.00 99 1015.2
20260508094943 35 301 1.0 2.0 0.00 0.00 0.00 99 1015.1
20260508094443 35 332 1.0 2.0 0.00 0.00 0.00 99 1015.1
20260508093943 36 314 1.0 2.0 0.00 0.00 0.00 99 1015.1
20260508093443 36 311 2.0 3.0 0.00 0.00 0.00 99 1015.1
20260508092943 36 332 2.0 3.0 0.00 0.00 0.00 99 1015.1
20260508092443 36 346 1.0 2.0 0.00 0.00 0.00 99 1015.1
20260508091943 36 0 1.0 2.0 0.00 0.00 0.00 99 1015.2
20260508091443 36 288 1.0 2.0 0.00 0.00 0.00 99 1015.2
20260508090942 36 269 1.0 2.0 0.00 0.00 0.00 99 1015.1
20260508090442 37 289 1.0 2.0 0.00 0.00 0.00 99 1015.1
20260508085942 37 288 1.0 2.0 0.00 0.00 0.00 99 1015.2
20260508085442 37 293 1.0 2.0 0.00 0.00 0.00 99 1015.2
20260508084942 37 306 1.0 3.0 0.00 0.00 0.00 99 1015.2
20260508084442 37 270 1.0 3.0 0.00 0.00 0.00 99 1015.2
20260508083929 37 292 0.0 2.0 0.00 0.00 0.00 99 1015.2
20260508083428 37 0 0.0 1.0 0.00 0.00 0.00 99 1015.1
20260508082929 37 0 1.0 2.0 0.00 0.00 0.00 99 1015.1
20260508082428 37 0 1.0 2.0 0.00 0.00 0.00 100 1015.0
20260508081929 37 248 1.0 2.0 0.00 0.00 0.00 99 1015.0
20260508081429 38 287 2.0 4.0 0.00 0.00 0.00 99 1015.1
20260508080929 38 250 1.0 4.0 0.00 0.00 0.00 99 1015.0
20260508080429 38 305 1.0 4.0 0.00 0.00 0.00 99 1015.0
20260508075930 38 276 0.0 3.0 0.00 0.00 0.00 99 1015.0
20260508075429 38 351 1.0 3.0 0.00 0.00 0.00 99 1015.1
20260508074929 38 0 1.0 3.0 0.00 0.00 0.00 100 1015.0
20260508074415 38 280 2.0 3.0 0.00 0.00 0.00 100 1014.9
20260508073915 38 286 1.0 2.0 0.00 0.00 0.00 100 1015.0
20260508073414 38 0 0.0 1.0 0.00 0.00 0.00 100 1014.9
20260508072915 38 0 0.0 2.0 0.00 0.00 0.00 100 1015.0
20260508072415 38 0 0.0 2.0 0.00 0.01 0.00 100 1015.0
20260508071914 39 0 1.0 4.0 0.00 0.01 0.00 100 1015.1
20260508071415 39 0 1.0 4.0 0.00 0.01 0.00 100 1015.1
20260508070916 39 36 1.0 2.0 0.00 0.01 0.00 100 1015.1
20260508070415 39 4 0.0 2.0 0.00 0.01 0.00 100 1015.1
20260508065915 39 0 0.0 0.0 0.00 0.01 0.00 99 1015.2
20260508065416 39 0 0.0 0.0 0.00 0.01 0.00 99 1015.1
20260508064915 39 0 0.0 0.0 0.00 0.01 0.00 99 1015.1
20260508064416 39 0 0.0 0.0 0.00 0.01 0.00 99 1015.1
20260508063915 40 0 0.0 0.0 0.00 0.01 0.00 99 1015.1
20260508063400 40 0 0.0 0.0 0.00 0.01 0.00 99 1015.1
20260508062901 40 0 0.0 0.0 0.00 0.01 0.00 99 1015.1
20260508062401 40 0 0.0 0.0 0.00 0.02 0.00 99 1015.2
20260508061901 40 0 0.0 0.0 0.00 0.03 0.00 99 1015.1
20260508061401 40 0 0.0 0.0 0.00 0.03 0.00 99 1015.1
20260508060900 41 0 0.0 2.0 0.00 0.03 0.00 99 1015.0
20260508060401 41 0 0.0 2.0 0.00 0.03 0.00 99 1015.1
20260508055901 41 0 0.0 0.0 0.00 0.03 0.00 98 1015.1
20260508055401 41 0 0.0 0.0 0.00 0.03 0.00 98 1015.2
20260508054901 41 0 0.0 0.0 0.00 0.03 0.00 98 1015.1
20260508054347 42 0 0.0 0.0 0.00 0.03 0.00 98 1015.1
20260508053847 42 0 0.0 0.0 0.00 0.03 0.00 98 1015.1
20260508053347 42 0 0.0 1.0 0.00 0.03 0.00 98 1015.1
20260508052847 43 0 0.0 1.0 0.00 0.03 0.00 98 1015.1
20260508052348 43 0 0.0 1.0 0.00 0.03 0.00 98 1015.1
20260508051847 44 0 0.0 1.0 0.00 0.03 0.00 98 1015.1
20260508051348 44 293 0.0 2.0 0.00 0.03 0.00 98 1015.1
20260508050847 44 0 0.0 2.0 0.00 0.03 0.00 98 1015.1
20260508050346 44 284 1.0 2.0 0.00 0.03 0.00 98 1015.0
20260508045846 44 0 1.0 2.0 0.00 0.03 0.00 98 1014.9
20260508045346 44 293 1.0 2.0 0.00 0.03 0.00 97 1014.9
20260508044846 44 287 1.0 3.0 0.00 0.03 0.00 97 1014.8
20260508044346 45 308 1.0 4.0 0.00 0.03 0.00 97 1014.8
20260508043846 45 327 1.0 4.0 0.00 0.03 0.00 97 1014.9
20260508043346 45 324 2.0 4.0 0.00 0.03 0.00 97 1014.9
20260508042845 45 311 2.0 5.0 0.00 0.03 0.00 97 1014.8
20260508042343 45 316 2.0 5.0 0.00 0.03 0.00 96 1014.8
20260508041842 45 331 2.0 4.0 0.00 0.03 0.00 96 1014.8
20260508041343 45 305 2.0 4.0 0.00 0.03 0.00 96 1014.7
20260508040842 45 262 2.0 4.0 0.00 0.03 0.00 96 1014.7
20260508040343 45 318 2.0 4.0 0.00 0.03 0.00 97 1014.5
20260508035843 45 312 2.0 5.0 0.00 0.03 0.03 97 1014.5
20260508035343 45 298 1.0 5.0 0.00 0.03 0.03 97 1014.6
20260508034842 45 313 0.0 2.0 0.00 0.03 0.03 97 1014.6
20260508034343 45 0 1.0 3.0 0.00 0.03 0.03 97 1014.7
20260508033843 45 0 2.0 4.0 0.00 0.03 0.03 97 1014.8
20260508033343 45 302 2.0 4.0 0.00 0.03 0.03 97 1014.7
20260508032844 45 314 2.0 4.0 0.00 0.03 0.03 97 1014.7
20260508032343 45 303 1.0 4.0 0.00 0.03 0.03 97 1014.7
20260508031843 45 0 0.0 2.0 0.00 0.03 0.03 97 1014.6
20260508031343 45 0 0.0 2.0 0.00 0.03 0.03 97 1014.5
20260508030844 45 0 1.0 3.0 0.00 0.03 0.03 97 1014.5
20260508030341 44 302 1.0 3.0 0.00 0.03 0.03 97 1014.4
20260508025841 44 304 0.0 2.0 0.00 0.03 0.03 97 1014.3
20260508025341 44 0 1.0 3.0 0.00 0.03 0.03 97 1014.1
20260508024840 44 294 2.0 3.0 0.00 0.03 0.03 97 1014.1
20260508024341 44 259 2.0 3.0 0.00 0.03 0.03 97 1014.1
20260508023842 44 303 1.0 3.0 0.00 0.03 0.03 97 1014.1
20260508023341 44 242 1.0 2.0 0.00 0.03 0.03 97 1014.1
20260508022841 44 0 1.0 2.0 0.00 0.04 0.03 97 1014.3
20260508022339 44 298 1.0 2.0 0.00 0.04 0.03 97 1014.3
20260508021839 44 277 1.0 2.0 0.00 0.04 0.03 97 1014.0
20260508021338 44 0 1.0 2.0 0.00 0.04 0.03 96 1013.9
20260508020839 44 12 1.0 2.0 0.00 0.04 0.03 96 1013.8
20260508020336 44 279 1.0 2.0 0.00 0.04 0.03 96 1013.8
20260508015835 44 282 1.0 2.0 0.00 0.04 0.03 95 1013.8
20260508015336 45 0 1.0 2.0 0.00 0.04 0.03 95 1013.7
20260508014836 45 299 1.0 3.0 0.00 0.04 0.03 95 1013.7
20260508014336 45 287 1.0 3.0 0.00 0.04 0.03 94 1013.6
20260508013837 45 299 2.0 3.0 0.00 0.04 0.03 94 1013.5
20260508013336 45 280 1.0 3.0 0.00 0.04 0.03 94 1013.5
20260508012837 45 305 1.0 3.0 0.00 0.04 0.03 94 1013.5
20260508012336 45 299 2.0 4.0 0.00 0.04 0.03 93 1013.4
20260508011833 46 292 2.0 4.0 0.00 0.05 0.03 93 1013.3
20260508011334 46 310 2.0 3.0 0.00 0.05 0.03 92 1013.2
20260508010833 46 308 2.0 3.0 0.00 0.05 0.03 92 1013.1
20260508010334 46 0 2.0 3.0 0.00 0.05 0.03 92 1013.1
20260508005833 47 298 2.0 3.0 0.00 0.05 0.03 90 1013.0
20260508005334 47 282 1.0 3.0 0.00 0.05 0.03 89 1012.8
20260508004834 48 289 1.0 2.0 0.00 0.05 0.03 88 1012.8
20260508004334 48 338 1.0 3.0 0.00 0.05 0.03 88 1012.8
20260508003834 49 29 1.0 3.0 0.00 0.05 0.03 86 1012.8
20260508003334 50 304 1.0 3.0 0.00 0.05 0.03 83 1012.8
20260508002831 50 3 2.0 4.0 0.00 0.05 0.03 81 1012.8
20260508002332 51 198 2.0 4.0 0.00 0.05 0.03 78 1013.0
20260508001828 51 311 2.0 7.0 0.00 0.05 0.03 77 1013.0
20260508001329 51 226 3.0 7.0 0.00 0.05 0.03 77 1012.8
20260508000828 51 291 2.0 6.0 0.00 0.05 0.03 77 1012.8
20260508000329 52 293 2.0 4.0 0.00 0.05 0.03 76 1012.8
20260507235829 52 238 2.0 4.0 0.00 0.05 0.03 76 1012.8
20260507235329 52 32 2.0 5.0 0.00 0.05 0.03 76 1012.8
20260507234828 52 0 3.0 6.0 0.00 0.06 0.03 75 1013.0
20260507234329 53 314 3.0 6.0 0.00 0.06 0.03 75 1013.0
20260507233829 53 290 3.0 6.0 0.00 0.06 0.03 74 1012.8
20260507233326 53 254 3.0 6.0 0.00 0.06 0.03 75 1013.0
20260507232827 53 27 3.0 6.0 0.00 0.06 0.03 74 1012.8
20260507232326 53 278 2.0 5.0 0.00 0.06 0.03 73 1013.0
20260507231824 53 359 3.0 6.0 0.00 0.06 0.03 75 1012.8
20260507231323 53 294 3.0 6.0 0.00 0.06 0.03 75 1012.8
20260507230824 53 282 2.0 4.0 0.00 0.06 0.03 76 1012.8
20260507230324 53 286 2.0 4.0 0.00 0.06 0.03 76 1012.8
20260507225824 53 267 2.0 5.0 0.00 0.06 0.03 76 1012.8
20260507225323 53 0 2.0 5.0 0.00 0.06 0.03 75 1012.7
20260507224824 53 294 2.0 5.0 0.00 0.06 0.03 76 1012.6
20260507224325 53 310 2.0 5.0 0.00 0.06 0.03 76 1012.6
20260507223824 53 241 2.0 4.0 0.00 0.06 0.03 76 1012.6
20260507223325 53 267 2.0 4.0 0.00 0.06 0.03 78 1012.5
20260507222824 52 12 2.0 4.0 0.00 0.06 0.03 79 1012.4
20260507222322 52 289 2.0 5.0 0.00 0.06 0.03 80 1012.5
20260507221818 52 288 2.0 5.0 0.00 0.06 0.03 81 1012.5
20260507221319 52 5 2.0 4.0 0.00 0.06 0.03 81 1012.4
20260507220818 52 19 2.0 4.0 0.00 0.06 0.03 81 1012.3
20260507220319 52 38 2.0 6.0 0.00 0.06 0.03 81 1012.2
20260507215819 52 301 2.0 7.0 0.00 0.06 0.03 81 1012.1
20260507215319 52 241 2.0 8.0 0.00 0.06 0.03 80 1012.1
20260507214819 52 176 3.0 8.0 0.00 0.06 0.03 81 1012.1
20260507214319 52 304 3.0 8.0 0.00 0.06 0.03 81 1011.9
20260507213820 52 293 3.0 5.0 0.00 0.06 0.03 81 1011.9
20260507213319 51 269 4.0 9.0 0.00 0.06 0.03 82 1011.9
20260507212820 51 347 4.0 10.0 0.00 0.06 0.03 82 1011.8
20260507212317 51 244 5.0 10.0 0.00 0.06 0.03 82 1011.8
20260507211817 51 316 4.0 9.0 0.00 0.06 0.03 83 1011.9
20260507211316 51 284 4.0 10.0 0.00 0.06 0.03 85 1011.9
20260507210817 51 308 4.0 10.0 0.00 0.06 0.03 86 1012.0
20260507210317 52 104 4.0 10.0 0.00 0.06 0.03 84 1011.8
20260507205818 52 274 5.0 10.0 0.00 0.06 0.03 84 1011.7
20260507205316 52 297 6.0 13.0 0.00 0.06 0.03 84 1011.7
20260507204817 53 322 6.0 13.0 0.00 0.06 0.03 84 1011.4
20260507204318 53 299 5.0 9.0 0.00 0.06 0.03 84 1011.2
20260507203817 54 278 6.0 12.0 0.00 0.06 0.03 83 1011.1
20260507203318 54 284 6.0 12.0 0.00 0.06 0.03 83 1011.2
20260507202817 54 335 5.0 11.0 0.00 0.06 0.03 82 1011.1
20260507202314 55 340 5.0 11.0 0.00 0.06 0.03 82 1011.0
20260507201815 55 300 5.0 11.0 0.00 0.06 0.03 83 1011.0
20260507201314 56 351 4.0 10.0 0.00 0.06 0.03 82 1011.0
20260507200815 56 235 4.0 9.0 0.00 0.06 0.03 81 1011.0
20260507200315 56 267 4.0 11.0 0.00 0.06 0.03 81 1010.8
20260507195815 56 302 4.0 11.0 0.00 0.06 0.03 82 1010.9
20260507195315 56 212 4.0 11.0 0.00 0.06 0.03 80 1010.9
20260507194815 56 163 4.0 11.0 0.00 0.06 0.03 81 1011.0
20260507194315 57 252 5.0 10.0 0.00 0.06 0.03 80 1011.0
20260507193815 56 246 5.0 11.0 0.00 0.06 0.03 82 1011.0
20260507193313 57 327 6.0 14.0 0.00 0.06 0.03 81 1010.8
20260507192812 58 303 7.0 14.0 0.00 0.06 0.03 81 1011.0
20260507192310 59 292 5.0 12.0 0.00 0.06 0.03 79 1011.0
20260507191810 60 303 4.0 13.0 0.00 0.06 0.03 79 1011.1
20260507191310 59 279 4.0 13.0 0.00 0.06 0.03 78 1011.1
20260507190810 59 274 4.0 12.0 0.00 0.06 0.03 78 1011.0
20260507190310 58 336 6.0 11.0 0.00 0.06 0.03 80 1011.1
20260507185810 58 274 6.0 12.0 0.00 0.06 0.03 80 1011.2
20260507185310 58 315 5.0 12.0 0.00 0.06 0.03 80 1011.2
20260507184810 58 206 5.0 11.0 0.00 0.06 0.03 79 1011.2
20260507184311 58 299 5.0 9.0 0.00 0.06 0.03 81 1011.1
20260507183810 58 0 4.0 9.0 0.00 0.06 0.03 80 1011.1
20260507183307 58 204 4.0 9.0 0.00 0.06 0.03 80 1011.2
20260507182808 59 300 4.0 9.0 0.00 0.06 0.03 80 1011.1
20260507182307 59 4 4.0 13.0 0.00 0.06 0.03 78 1011.0
20260507181808 59 145 5.0 13.0 0.00 0.06 0.03 78 1011.0
20260507181307 60 254 4.0 7.0 0.00 0.06 0.03 78 1011.0
20260507180808 60 315 2.0 6.0 0.00 0.06 0.03 79 1011.0
20260507180308 59 253 3.0 9.0 0.00 0.06 0.03 79 1011.1
20260507175808 59 136 3.0 9.0 0.00 0.06 0.03 82 1011.1
20260507175308 59 270 4.0 8.0 0.00 0.06 0.03 81 1011.0
20260507174808 59 268 5.0 9.0 0.00 0.06 0.03 82 1011.1
20260507174309 59 301 4.0 9.0 0.00 0.06 0.03 82 1011.1
20260507173808 60 345 3.0 8.0 0.00 0.06 0.03 81 1011.0
20260507173305 60 255 3.0 9.0 0.00 0.06 0.03 82 1010.9
20260507172806 60 183 5.0 9.0 0.00 0.06 0.03 83 1010.9
20260507172308 60 250 4.0 9.0 0.00 0.06 0.03 82 1010.9
20260507171806 61 316 4.0 9.0 0.00 0.06 0.03 81 1010.8
20260507171305 62 188 4.0 9.0 0.00 0.06 0.03 80 1010.8
20260507170806 63 306 4.0 9.0 0.00 0.06 0.03 78 1010.8
20260507170305 63 288 4.0 9.0 0.00 0.06 0.03 79 1010.7
20260507165806 63 327 3.0 8.0 0.00 0.06 0.03 79 1010.7
20260507165306 62 275 3.0 7.0 0.00 0.06 0.03 82 1010.6
20260507164806 62 299 3.0 7.0 0.00 0.06 0.03 81 1010.5
20260507164307 62 193 3.0 7.0 0.00 0.06 0.03 83 1010.7
20260507163804 61 123 3.0 8.0 0.00 0.06 0.03 84 1010.7
20260507163300 61 200 3.0 8.0 0.00 0.06 0.03 84 1010.9
20260507162801 61 153 3.0 7.0 0.00 0.06 0.03 86 1010.7
20260507162300 62 152 3.0 7.0 0.00 0.06 0.03 84 1010.8
20260507161801 62 162 2.0 6.0 0.00 0.06 0.03 82 1010.8
20260507161300 62 175 2.0 5.0 0.00 0.06 0.03 83 1010.7
20260507160801 62 48 3.0 5.0 0.00 0.06 0.03 85 1010.5
20260507160301 62 142 2.0 5.0 0.00 0.06 0.03 85 1010.6
20260507155801 62 182 2.0 5.0 0.00 0.06 0.03 86 1010.8
20260507155301 62 264 2.0 5.0 0.00 0.06 0.03 85 1010.9
20260507154801 62 181 2.0 4.0 0.00 0.07 0.03 83 1010.7
20260507154259 62 56 3.0 7.0 0.00 0.07 0.03 85 1010.8
20260507153800 61 245 4.0 9.0 0.00 0.07 0.03 86 1010.7
20260507153259 61 313 4.0 9.0 0.00 0.07 0.03 85 1010.8
20260507152800 62 268 3.0 7.0 0.00 0.07 0.03 86 1010.8
20260507152259 62 286 2.0 5.0 0.00 0.07 0.03 87 1010.7
20260507151800 62 243 2.0 5.0 0.00 0.07 0.03 87 1010.8
20260507151300 62 29 2.0 4.0 0.00 0.07 0.03 90 1010.8
20260507150800 62 225 2.0 6.0 0.00 0.07 0.03 87 1010.7
20260507150300 62 174 2.0 6.0 0.00 0.07 0.03 88 1010.7
20260507145800 62 323 2.0 4.0 0.00 0.07 0.03 90 1010.8
20260507145300 62 190 2.0 6.0 0.00 0.07 0.03 88 1010.7
20260507144750 62 292 3.0 6.0 0.00 0.07 0.03 89 1010.6
20260507144247 62 273 3.0 6.0 0.00 0.07 0.03 90 1010.6
20260507143747 62 286 2.0 4.0 0.00 0.07 0.03 93 1010.6
20260507143232 61 210 1.0 2.0 0.00 0.07 0.03 94 1010.7
20260507142732 61 43 0.0 2.0 0.00 0.07 0.03 95 1010.6
20260507142218 61 21 1.0 2.0 0.00 0.07 0.03 95 1010.7
20260507141718 61 292 1.0 2.0 0.00 0.07 0.03 95 1010.7
20260507141218 61 218 1.0 2.0 0.00 0.07 0.03 95 1010.6
20260507140717 61 0 1.0 2.0 0.00 0.07 0.03 93 1010.5
20260507140203 60 287 1.0 2.0 0.00 0.07 0.03 93 1010.5
20260507135703 60 288 1.0 2.0 0.00 0.07 0.03 93 1010.6